Daviess Cnty AP, Washington,, IN

1:25 AM EST on November 20, 2019 (GMT -0500)
Daviess County

Weather History for KDCY - September, 2019

Change the Weather History Date:

Friday, September 27, 2019

  Actual Average (WUND) Record (WUND)
Temperature  
Mean Temperature 70 °F -  
Max Temperature 90 °F - - (-1)
Min Temperature 49 °F - - (-1)
Cooling Degree Days 4    
Growing Degree Days 20 (Base 50)    
Moisture  
Dew Point 58 °F    
Average Humidity 69    
Maximum Humidity 100    
Minimum Humidity 39    
Precipitation  
Precipitation 0.00 in - - ()
Sea Level Pressure  
Sea Level Pressure 29.89 in    
Wind  
Wind Speed 5 mph (South)    
Max Wind Speed 20 mph    
Max Gust Speed 28 mph    
Visibility 10 miles    
Events      
Averages and records for this station are not official NWS values.
T = Trace of Precipitation, MM = Missing Value Source: NWS Daily Summary

Daily Weather History Graph

Daily Weather History Graph

Search for Another Location

Airport or City:

Astronomy

Sep. 27, 2019 Rise Set
Actual Time 7:40 AM EDT 7:37 PM EDT
Civil Twilight 7:14 AM EDT 8:04 PM EDT
Nautical Twilight 6:43 AM EDT 8:35 PM EDT
Astronomical Twilight 6:11 AM EDT 9:06 PM EDT
Moon 6:03 AM EDT (9/27) 7:26 PM EDT (9/27)
Length of Visible Light 12h 50m
Length of Day
11h 57m
Waning Crescent, 2% of the Moon is Illuminated
Sep 27
Waning Crescent
Sep 28
New
Oct 5
First Quarter
Oct 13
Full
Oct 21
Last Quarter

Hourly Weather History & Observations

Time (EDT) Temp. Heat Index Dew Point Humidity Pressure Visibility Wind Dir Wind Speed Gust Speed Precip Events Conditions
12:15 AM 51.1 °F - 50.9 °F 99% 29.98 in 10.0 mi Calm Calm - N/A   Clear
12:35 AM 51.6 °F - 51.4 °F 99% 29.98 in 10.0 mi Calm Calm - N/A   Clear
12:55 AM 50.7 °F - 50.5 °F 99% 29.98 in 10.0 mi Calm Calm - N/A   Clear
1:15 AM 50.9 °F - 50.4 °F 98% 29.97 in 10.0 mi Calm Calm - N/A   Clear
1:35 AM 50.0 °F - 49.8 °F 99% 29.97 in 10.0 mi Calm Calm - N/A   Clear
1:55 AM 50.5 °F - 50.4 °F 99% 29.96 in 10.0 mi Calm Calm - N/A   Clear
2:15 AM 52.3 °F - 51.6 °F 97% 29.97 in 10.0 mi Calm Calm - N/A   Clear
2:35 AM 52.0 °F - 51.1 °F 97% 29.96 in 10.0 mi Calm Calm - N/A   Clear
2:55 AM 50.9 °F - 50.9 °F 100% 29.95 in 10.0 mi Calm Calm - N/A   Clear
3:15 AM 50.9 °F - 50.7 °F 99% 29.95 in 10.0 mi SSE 3.5 mph - N/A   Clear
3:35 AM 51.3 °F - 49.5 °F 94% 29.94 in 10.0 mi South 3.5 mph - N/A   Clear
3:55 AM 51.3 °F - 50.0 °F 95% 29.94 in 10.0 mi SSE 3.5 mph - N/A   Clear
4:15 AM 51.4 °F - 51.3 °F 99% 29.93 in 10.0 mi Calm Calm - N/A   Clear
4:35 AM 51.6 °F - 50.7 °F 97% 29.94 in 10.0 mi Calm Calm - N/A   Clear
4:55 AM 49.6 °F - 49.1 °F 98% 29.94 in 10.0 mi Calm Calm - N/A   Clear
5:15 AM 50.0 °F - 50.0 °F 100% 29.94 in 10.0 mi Calm Calm - N/A   Clear
5:35 AM 52.2 °F - 50.0 °F 92% 29.93 in 10.0 mi Calm Calm - N/A   Clear
5:55 AM 50.5 °F - 50.4 °F 99% 29.94 in 10.0 mi Calm Calm - N/A   Clear
6:15 AM 51.4 °F - 51.3 °F 99% 29.94 in 10.0 mi Calm Calm - N/A   Clear
6:35 AM 53.2 °F - 49.5 °F 87% 29.94 in 10.0 mi Calm Calm - N/A   Clear
6:55 AM 53.2 °F - 48.6 °F 84% 29.94 in 10.0 mi Calm Calm - N/A   Clear
7:15 AM 53.6 °F - 48.6 °F 83% 29.94 in 10.0 mi Calm Calm - N/A   Clear
7:35 AM 53.6 °F - 49.1 °F 85% 29.94 in 10.0 mi SE 3.5 mph - N/A   Clear
7:55 AM 54.0 °F - 49.3 °F 84% 29.95 in 10.0 mi Calm Calm - N/A   Clear
8:15 AM 54.7 °F - 50.7 °F 86% 29.95 in 10.0 mi ESE 3.5 mph - N/A   Clear
8:35 AM 57.7 °F - 52.0 °F 81% 29.95 in 10.0 mi SE 3.5 mph - N/A   Clear
8:55 AM 59.0 °F - 52.3 °F 79% 29.95 in 10.0 mi SE 3.5 mph - N/A   Clear
9:15 AM 60.1 °F - 52.7 °F 77% 29.95 in 10.0 mi SSE 5.8 mph - N/A   Clear
9:35 AM 64.8 °F - 53.1 °F 66% 29.94 in 10.0 mi South 11.5 mph - N/A   Clear
9:55 AM 67.6 °F - 51.4 °F 56% 29.93 in 10.0 mi South 15.0 mph - N/A   Clear
10:15 AM 69.8 °F - 53.8 °F 57% 29.93 in 10.0 mi South 16.1 mph 19.6 mph N/A   Clear
10:35 AM 72.5 °F - 57.0 °F 58% 29.92 in 10.0 mi South 16.1 mph - N/A   Clear
10:55 AM 74.3 °F - 59.9 °F 61% 29.92 in 10.0 mi South 13.8 mph 21.9 mph N/A   Clear
11:15 AM 76.3 °F - 61.9 °F 61% 29.92 in 10.0 mi South 13.8 mph 18.4 mph N/A   Clear
11:35 AM 78.8 °F - 64.0 °F 60% 29.91 in 10.0 mi South 15.0 mph 20.7 mph N/A   Clear
11:55 AM 80.6 °F 82.3 °F 64.8 °F 58% 29.90 in 10.0 mi South 15.0 mph 20.7 mph N/A   Clear
12:15 PM 81.5 °F 83.4 °F 65.5 °F 58% 29.89 in 10.0 mi South 15.0 mph 20.7 mph N/A   Clear
12:35 PM 82.9 °F 85.0 °F 65.7 °F 56% 29.88 in 10.0 mi SSW 16.1 mph 26.5 mph N/A   Clear
12:55 PM 84.0 °F 86.3 °F 66.0 °F 55% 29.88 in 10.0 mi South 12.7 mph 20.7 mph N/A   Clear
1:15 PM 85.1 °F 87.1 °F 65.7 °F 52% 29.88 in 10.0 mi South 17.3 mph - N/A   Clear
1:35 PM 86.5 °F 88.7 °F 66.0 °F 50% 29.88 in 10.0 mi SSW 10.4 mph 23.0 mph N/A   Clear
1:55 PM 87.3 °F 89.2 °F 65.3 °F 48% 29.87 in 10.0 mi South 17.3 mph 25.3 mph N/A   Clear
2:15 PM 88.0 °F 89.0 °F 63.7 °F 44% 29.87 in 10.0 mi SSW 15.0 mph 24.2 mph N/A   Clear
2:35 PM 88.9 °F 90.0 °F 63.9 °F 43% 29.85 in 10.0 mi SSW 15.0 mph 23.0 mph N/A   Clear
2:55 PM 89.1 °F 89.6 °F 62.8 °F 41% 29.84 in 10.0 mi SSW 17.3 mph 26.5 mph N/A   Clear
3:10 PM 89.1 °F 89.6 °F 62.6 °F 41% 29.83 in 10.0 mi South 17.3 mph 27.6 mph N/A   Clear
3:35 PM 90.1 °F 90.9 °F 63.1 °F 40% 29.83 in 10.0 mi SSW 13.8 mph 24.2 mph N/A   Clear
3:55 PM 90.0 °F 90.3 °F 62.1 °F 39% 29.82 in 10.0 mi SSW 15.0 mph 27.6 mph N/A   Scattered Clouds
4:15 PM 90.5 °F 91.1 °F 62.2 °F 39% 29.82 in 10.0 mi SW 19.6 mph 24.2 mph N/A   Scattered Clouds
4:35 PM 90.0 °F 90.6 °F 62.6 °F 40% 29.83 in 10.0 mi SSW 16.1 mph 24.2 mph N/A   Clear
4:55 PM 89.8 °F 90.4 °F 62.2 °F 40% 29.83 in 10.0 mi SW 12.7 mph 23.0 mph N/A   Clear
5:15 PM 90.3 °F 91.5 °F 63.5 °F 41% 29.83 in 10.0 mi SSW 9.2 mph - N/A   Scattered Clouds
5:35 PM 88.5 °F 88.9 °F 62.2 °F 41% 29.83 in 10.0 mi SSW 10.4 mph 16.1 mph N/A   Scattered Clouds
5:55 PM 87.8 °F 88.2 °F 62.2 °F 42% 29.83 in 10.0 mi SSW 10.4 mph 19.6 mph N/A   Clear
6:15 PM 88.3 °F 89.2 °F 63.1 °F 43% 29.83 in 10.0 mi SSW 11.5 mph - N/A   Clear
6:30 PM 87.1 °F 88.0 °F 63.1 °F 45% 29.83 in 10.0 mi SSW 9.2 mph - N/A   Clear
6:50 PM 86.5 °F 87.6 °F 63.5 °F 46% 29.83 in 10.0 mi SSW 8.1 mph - N/A   Clear
7:15 PM 84.4 °F 85.4 °F 63.5 °F 49% 29.83 in 10.0 mi South 9.2 mph - N/A   Clear
7:35 PM 81.7 °F 83.0 °F 63.5 °F 54% 29.83 in 10.0 mi South 5.8 mph - N/A   Clear
7:55 PM 78.4 °F - 63.1 °F 59% 29.82 in 10.0 mi South 6.9 mph - N/A   Clear
8:10 PM 76.8 °F - 63.3 °F 63% 29.82 in 10.0 mi South 8.1 mph - N/A   Clear
8:35 PM 75.2 °F - 63.5 °F 67% 29.82 in 10.0 mi South 6.9 mph - N/A   Clear
8:55 PM 76.1 °F - 64.0 °F 66% 29.82 in 10.0 mi South 9.2 mph - N/A   Clear
9:15 PM 77.0 °F - 64.2 °F 65% 29.82 in 10.0 mi South 8.1 mph - N/A   Clear
9:35 PM 78.4 °F - 64.4 °F 62% 29.81 in 10.0 mi South 9.2 mph - N/A   Clear
9:55 PM 77.9 °F - 64.0 °F 62% 29.81 in 10.0 mi South 9.2 mph - N/A   Clear
10:15 PM 77.0 °F - 64.0 °F 64% 29.81 in 10.0 mi South 10.4 mph - N/A   Clear
10:35 PM 76.6 °F - 64.0 °F 65% 29.82 in 10.0 mi South 9.2 mph - N/A   Clear
10:55 PM 77.2 °F - 64.2 °F 64% 29.82 in 10.0 mi SSW 9.2 mph - N/A   Clear
11:10 PM 77.0 °F - 64.4 °F 65% 29.83 in 10.0 mi SSW 6.9 mph - N/A   Clear
11:30 PM 75.6 °F - 64.4 °F 68% 29.84 in 10.0 mi South 6.9 mph - N/A   Clear
11:55 PM 73.4 °F - 64.4 °F 73% 29.85 in 10.0 mi South 6.9 mph - N/A   Clear